Shawano, WI

8:19 AM CST on February 22, 2017 (GMT -0600)
Shawano

Weather History for KEZS - July, 2013

Change the Weather History Date:

Sunday, July 14, 2013

  Actual Average (KCLI) Record (KCLI)
Temperature  
Mean Temperature 74 °F -  
Max Temperature 88 °F 82 °F 93 °F (1955)
Min Temperature 59 °F 59 °F 45 °F (1960)
Cooling Degree Days 8    
Growing Degree Days 24 (Base 50)    
Moisture  
Dew Point 62 °F    
Average Humidity 65    
Maximum Humidity 91    
Minimum Humidity 46    
Precipitation  
Precipitation 0.00 in - - ()
Sea Level Pressure  
Sea Level Pressure 30.22 in    
Wind  
Wind Speed 1 mph (South)    
Max Wind Speed 8 mph    
Max Gust Speed -    
Visibility 10 miles    
Events      
Averages and records for this station are not official NWS values.
T = Trace of Precipitation, MM = Missing Value Source: NWS Daily Summary

Daily Weather History Graph

Daily Weather History Graph

Search for Another Location

Airport or City:

Trip Planner

Search our weather history database for the weather conditions in past years. The results will help you decide how hot, cold, wet, or windy it might be!

Date:

Astronomy

Jul. 14, 2013 Rise Set
Actual Time 5:21 AM CDT 8:37 PM CDT
Civil Twilight 4:46 AM CDT 9:13 PM CDT
Nautical Twilight 3:59 AM CDT 9:59 PM CDT
Astronomical Twilight 3:01 AM CDT 10:57 PM CDT
Moon 11:57 AM CDT (7/14) 11:30 PM CDT (7/14)
Length of Visible Light 16h 27m
Length of Day
15h 15m
Waxing Crescent, 35% of the Moon is Illuminated
Jul 14
Waxing Crescent
Jul 15
First Quarter
Jul 22
Full
Jul 29
Last Quarter
Aug 6
New

Hourly Weather History & Observations

Time (CDT) Temp. Heat Index Dew Point Humidity Pressure Visibility Wind Dir Wind Speed Gust Speed Precip Events Conditions
12:15 AM 66.9 °F - 57.2 °F 71% 30.17 in 10.0 mi Calm Calm - N/A   Clear
12:35 AM 66.7 °F - 56.8 °F 70% 30.18 in 10.0 mi Calm Calm - N/A   Clear
12:55 AM 65.3 °F - 57.2 °F 75% 30.19 in 10.0 mi Calm Calm - N/A   Clear
1:15 AM 66.9 °F - 56.5 °F 69% 30.20 in 10.0 mi Calm Calm - N/A   Clear
1:35 AM 63.7 °F - 57.2 °F 79% 30.19 in 10.0 mi Calm Calm - N/A   Clear
1:55 AM 63.3 °F - 57.7 °F 82% 30.20 in 10.0 mi Calm Calm - N/A   Clear
2:15 AM 63.5 °F - 57.6 °F 81% 30.20 in 10.0 mi Calm Calm - N/A   Clear
2:35 AM 62.1 °F - 57.0 °F 84% 30.20 in 10.0 mi Calm Calm - N/A   Clear
2:55 AM 60.4 °F - 57.0 °F 88% 30.20 in 10.0 mi Calm Calm - N/A   Clear
3:15 AM 62.2 °F - 57.2 °F 84% 30.20 in 10.0 mi Calm Calm - N/A   Clear
3:35 AM 60.8 °F - 56.7 °F 86% 30.20 in 10.0 mi Calm Calm - N/A   Clear
3:55 AM 60.3 °F - 56.7 °F 88% 30.20 in 10.0 mi Calm Calm - N/A   Clear
4:15 AM 59.0 °F - 56.5 °F 91% 30.20 in 10.0 mi Calm Calm - N/A   Clear
4:35 AM 60.1 °F - 55.6 °F 85% 30.20 in 10.0 mi Calm Calm - N/A   Clear
4:55 AM 59.5 °F - 55.8 °F 87% 30.20 in 10.0 mi Calm Calm - N/A   Clear
5:15 AM 60.1 °F - 55.6 °F 85% 30.20 in 10.0 mi Calm Calm - N/A   Clear
5:35 AM 59.9 °F - 55.9 °F 87% 30.20 in 10.0 mi Calm Calm - N/A   Clear
5:55 AM 60.1 °F - 56.3 °F 87% 30.21 in 10.0 mi Calm Calm - N/A   Clear
6:15 AM 61.7 °F - 57.2 °F 85% 30.21 in 10.0 mi Calm Calm - N/A   Clear
6:35 AM 63.3 °F - 59.2 °F 86% 30.21 in 10.0 mi Calm Calm - N/A   Clear
6:55 AM 65.5 °F - 59.0 °F 80% 30.21 in 10.0 mi Calm Calm - N/A   Clear
7:15 AM 66.4 °F - 59.7 °F 79% 30.22 in 10.0 mi Calm Calm - N/A   Clear
7:35 AM 67.6 °F - 59.2 °F 74% 30.22 in 10.0 mi Calm Calm - N/A   Clear
7:55 AM 68.5 °F - 58.8 °F 71% 30.22 in 10.0 mi Calm Calm - N/A   Clear
8:15 AM 70.3 °F - 59.7 °F 69% 30.22 in 10.0 mi Calm Calm - N/A   Clear
8:35 AM 72.0 °F - 60.8 °F 68% 30.23 in 10.0 mi Calm Calm - N/A   Clear
8:55 AM 74.7 °F - 61.9 °F 64% 30.23 in 10.0 mi Calm Calm - N/A   Clear
9:15 AM 75.2 °F - 62.4 °F 64% 30.24 in 10.0 mi Calm Calm - N/A   Clear
9:35 AM 77.5 °F - 63.5 °F 62% 30.24 in 10.0 mi Calm Calm - N/A   Clear
9:55 AM 78.8 °F - 62.1 °F 56% 30.24 in 10.0 mi Calm Calm - N/A   Clear
10:15 AM 80.2 °F 81.8 °F 63.7 °F 57% 30.24 in 10.0 mi Calm Calm - N/A   Clear
10:35 AM 81.3 °F 83.0 °F 64.6 °F 57% 30.24 in 10.0 mi SW 4.6 mph - N/A   Clear
10:55 AM 82.0 °F 83.9 °F 65.5 °F 57% 30.25 in 10.0 mi WNW 3.5 mph - N/A   Clear
11:15 AM 82.4 °F 83.9 °F 64.4 °F 54% 30.25 in 10.0 mi SW 5.8 mph - N/A   Clear
11:35 AM 83.8 °F 85.3 °F 64.4 °F 52% 30.25 in 10.0 mi SSW 5.8 mph - N/A   Scattered Clouds
11:55 AM 84.4 °F 86.1 °F 64.8 °F 52% 30.24 in 10.0 mi South 4.6 mph - N/A   Mostly Cloudy
12:15 PM 84.4 °F 85.9 °F 64.2 °F 51% 30.24 in 10.0 mi South 6.9 mph - N/A   Scattered Clouds
12:35 PM 84.7 °F 86.1 °F 64.0 °F 50% 30.24 in 10.0 mi WSW 3.5 mph - N/A   Scattered Clouds
12:55 PM 85.3 °F 86.8 °F 64.6 °F 50% 30.24 in 10.0 mi South 4.6 mph - N/A   Scattered Clouds
1:15 PM 86.0 °F 87.9 °F 65.5 °F 50% 30.23 in 10.0 mi Calm Calm - N/A   Clear
1:35 PM 86.7 °F 88.7 °F 65.7 °F 49% 30.23 in 10.0 mi South 5.8 mph - N/A   Scattered Clouds
1:55 PM 86.0 °F 87.6 °F 64.8 °F 49% 30.23 in 10.0 mi SSW 8.1 mph - N/A   Mostly Cloudy
2:15 PM 86.9 °F 88.3 °F 64.2 °F 47% 30.22 in 10.0 mi SW 4.6 mph - N/A   Scattered Clouds
2:35 PM 86.5 °F 87.8 °F 64.2 °F 47% 30.22 in 10.0 mi SSW 4.6 mph - N/A   Scattered Clouds
2:55 PM 87.3 °F 88.6 °F 63.9 °F 46% 30.21 in 10.0 mi SSE 6.9 mph - N/A   Scattered Clouds
3:15 PM 85.1 °F 86.1 °F 63.5 °F 48% 30.21 in 10.0 mi South 5.8 mph - N/A   Scattered Clouds
3:35 PM 87.1 °F 88.3 °F 64.0 °F 46% 30.21 in 10.0 mi South 5.8 mph - N/A   Mostly Cloudy
3:55 PM 88.3 °F 90.5 °F 65.7 °F 47% 30.21 in 10.0 mi SE 5.8 mph - N/A   Scattered Clouds
4:35 PM 85.3 °F 87.6 °F 66.4 °F 53% 30.21 in 10.0 mi South 3.5 mph - N/A   Mostly Cloudy
4:55 PM 86.2 °F 88.2 °F 65.5 °F 50% 30.21 in 10.0 mi Calm Calm - N/A   Mostly Cloudy
5:15 PM 85.6 °F 87.1 °F 64.4 °F 49% 30.21 in 10.0 mi Calm Calm - N/A   Mostly Cloudy
5:35 PM 87.3 °F 89.2 °F 65.3 °F 48% 30.20 in 10.0 mi SSE 4.6 mph - N/A   Scattered Clouds
5:55 PM 86.5 °F 88.4 °F 65.1 °F 49% 30.20 in 10.0 mi SSE 4.6 mph - N/A   Scattered Clouds
6:15 PM 86.4 °F 87.8 °F 64.6 °F 48% 30.20 in 10.0 mi South 5.8 mph - N/A   Clear
6:35 PM 86.2 °F 87.1 °F 63.1 °F 46% 30.20 in 7.0 mi South 5.8 mph - N/A   Clear
6:55 PM 85.6 °F 86.6 °F 63.3 °F 47% 30.20 in 10.0 mi South 3.5 mph - N/A   Clear
7:15 PM 85.3 °F 87.1 °F 65.3 °F 51% 30.20 in 10.0 mi SSE 3.5 mph - N/A   Clear
7:35 PM 84.4 °F 85.9 °F 64.6 °F 51% 30.20 in 10.0 mi Calm Calm - N/A   Clear
7:55 PM 83.5 °F 84.7 °F 63.5 °F 51% 30.20 in 10.0 mi Calm Calm - N/A   Clear
8:15 PM 79.2 °F - 66.2 °F 64% 30.21 in 10.0 mi Calm Calm - N/A   Clear
8:35 PM 77.9 °F - 65.7 °F 66% 30.21 in 10.0 mi Calm Calm - N/A   Clear
8:55 PM 76.5 °F - 66.2 °F 70% 30.22 in 10.0 mi Calm Calm - N/A   Clear
9:15 PM 75.0 °F - 66.4 °F 74% 30.22 in 10.0 mi Calm Calm - N/A   Clear
9:35 PM 73.2 °F - 66.4 °F 79% 30.23 in 10.0 mi Calm Calm - N/A   Clear
9:55 PM 73.2 °F - 66.2 °F 79% 30.23 in 10.0 mi Calm Calm - N/A   Clear
10:15 PM 75.4 °F - 65.8 °F 72% 30.23 in 10.0 mi South 4.6 mph - N/A   Clear
10:35 PM 75.7 °F - 65.3 °F 70% 30.23 in 10.0 mi South 4.6 mph - N/A   Clear
10:55 PM 75.2 °F - 65.3 °F 71% 30.23 in 10.0 mi South 3.5 mph - N/A   Clear
11:15 PM 75.2 °F - 64.9 °F 70% 30.24 in 10.0 mi South 3.5 mph - N/A   Clear
11:35 PM 74.5 °F - 64.9 °F 72% 30.24 in 10.0 mi South 3.5 mph - N/A   Clear
11:55 PM 74.3 °F - 64.9 °F 72% 30.24 in 10.0 mi Calm Calm - N/A   Clear